Time,TemperatureF,DewpointF,PressureIn,WindDirection,WindDirectionDegrees,WindSpeedMPH,WindSpeedGustMPH,Humidity,HourlyPrecipIn,Conditions,Clouds,dailyrainin,SoftwareType,DateUTC
2013-04-06 00:00:00,48.4,34.3,30.12,ENE,70,0.0,1.0,58,0.00,,---,0.02,VWS V14.00,2013-04-06 04:00:00,
2013-04-06 00:05:00,48.5,34.4,30.11,ENE,69,0.0,1.0,58,0.00,,---,0.02,VWS V14.00,2013-04-06 04:05:00,
2013-04-06 00:10:00,48.6,34.1,30.10,ENE,70,0.0,0.0,57,0.00,,---,0.00,VWS V14.00,2013-04-06 04:10:00,
2013-04-06 00:15:00,48.5,35.7,30.10,ENE,69,0.0,1.0,61,0.00,,---,0.00,VWS V14.00,2013-04-06 04:15:00,
2013-04-06 00:20:00,48.1,35.3,30.11,ENE,70,1.0,2.0,61,0.00,,---,0.00,VWS V14.00,2013-04-06 04:20:00,
2013-04-06 00:25:00,47.6,34.8,30.11,ENE,70,0.0,2.0,61,0.00,,---,0.00,VWS V14.00,2013-04-06 04:25:00,
2013-04-06 00:30:00,47.3,34.5,30.11,ENE,69,0.0,2.0,61,0.00,,---,0.00,VWS V14.00,2013-04-06 04:30:00,
2013-04-06 00:36:00,47.2,34.5,30.11,ENE,70,0.0,2.0,61,0.00,,---,0.00,VWS V14.00,2013-04-06 04:36:00,
2013-04-06 00:41:00,47.2,34.5,30.12,ENE,69,0.0,0.0,61,0.00,,---,0.00,VWS V14.00,2013-04-06 04:41:00,
2013-04-06 00:46:00,47.2,34.0,30.12,ENE,70,0.0,0.0,60,0.00,,---,0.00,VWS V14.00,2013-04-06 04:46:00,
2013-04-06 00:51:00,47.2,34.0,30.12,ENE,69,0.0,1.0,60,0.00,,---,0.00,VWS V14.00,2013-04-06 04:51:00,
2013-04-06 00:56:00,47.3,34.1,30.12,ENE,70,0.0,1.0,60,0.00,,---,0.00,VWS V14.00,2013-04-06 04:56:00,
2013-04-06 01:01:00,47.4,34.2,30.12,ENE,70,0.0,1.0,60,0.00,,---,0.00,VWS V14.00,2013-04-06 05:01:00,
2013-04-06 01:06:00,47.5,34.3,30.12,ENE,69,0.0,1.0,60,0.00,,---,0.00,VWS V14.00,2013-04-06 05:06:00,
2013-04-06 01:11:00,47.4,34.2,30.11,ENE,70,0.0,0.0,60,0.00,,---,0.00,VWS V14.00,2013-04-06 05:11:00,
2013-04-06 01:16:00,47.3,35.0,30.12,ENE,70,0.0,0.0,62,0.00,,---,0.00,VWS V14.00,2013-04-06 05:16:00,
2013-04-06 01:21:00,47.1,34.4,30.12,ENE,70,1.0,2.0,61,0.00,,---,0.00,VWS V14.00,2013-04-06 05:21:00,
2013-04-06 01:26:00,46.7,34.4,30.12,NNE,15,0.0,3.0,62,0.00,,---,0.00,VWS V14.00,2013-04-06 05:26:00,
2013-04-06 01:32:00,46.6,33.9,30.11,NNE,15,0.0,3.0,61,0.00,,---,0.00,VWS V14.00,2013-04-06 05:32:00,
2013-04-06 01:37:00,46.7,34.0,30.11,NNE,16,0.0,3.0,61,0.00,,---,0.00,VWS V14.00,2013-04-06 05:37:00,
2013-04-06 01:42:00,46.8,34.1,30.11,NNE,16,0.0,0.0,61,0.00,,---,0.00,VWS V14.00,2013-04-06 05:42:00,
2013-04-06 01:47:00,46.9,34.6,30.11,NNE,16,0.0,0.0,62,0.00,,---,0.00,VWS V14.00,2013-04-06 05:47:00,
2013-04-06 01:52:00,46.8,34.9,30.11,NNE,15,0.0,0.0,63,0.00,,---,0.00,VWS V14.00,2013-04-06 05:52:00,
2013-04-06 01:57:00,46.7,34.4,30.11,NNE,15,1.0,1.0,62,0.00,,---,0.00,VWS V14.00,2013-04-06 05:57:00,
2013-04-06 02:02:00,46.5,33.8,30.11,NNE,16,0.0,1.0,61,0.00,,---,0.00,VWS V14.00,2013-04-06 06:02:00,
2013-04-06 02:07:00,46.5,35.0,30.11,NNE,16,0.0,0.0,64,0.00,,---,0.00,VWS V14.00,2013-04-06 06:07:00,
2013-04-06 02:12:00,46.2,34.3,30.11,NNE,16,0.0,2.0,63,0.00,,---,0.00,VWS V14.00,2013-04-06 06:12:00,
2013-04-06 02:17:00,46.0,33.7,30.11,NNE,16,0.0,2.0,62,0.00,,---,0.00,VWS V14.00,2013-04-06 06:17:00,
2013-04-06 02:22:00,45.7,34.6,30.11,NNE,15,0.0,2.0,65,0.00,,---,0.00,VWS V14.00,2013-04-06 06:22:00,
2013-04-06 02:27:00,45.3,34.6,30.11,NNE,15,0.0,2.0,66,0.00,,---,0.00,VWS V14.00,2013-04-06 06:27:00,
2013-04-06 02:32:00,45.0,34.3,30.11,NNE,16,0.0,2.0,66,0.00,,---,0.00,VWS V14.00,2013-04-06 06:32:00,
2013-04-06 02:37:00,44.7,34.4,30.11,NNE,16,0.0,0.0,67,0.00,,---,0.00,VWS V14.00,2013-04-06 06:37:00,
2013-04-06 02:42:00,44.4,34.1,30.11,NNE,16,0.0,0.0,67,0.00,,---,0.00,VWS V14.00,2013-04-06 06:42:00,
2013-04-06 02:47:00,44.1,34.2,30.11,NNE,15,0.0,2.0,68,0.00,,---,0.00,VWS V14.00,2013-04-06 06:47:00,
2013-04-06 02:52:00,43.9,34.0,30.11,NNE,16,0.0,2.0,68,0.00,,---,0.00,VWS V14.00,2013-04-06 06:52:00,
2013-04-06 02:57:00,43.8,33.9,30.11,NNE,16,0.0,2.0,68,0.00,,---,0.00,VWS V14.00,2013-04-06 06:57:00,
2013-04-06 03:02:00,43.5,34.0,30.11,NNE,15,0.0,2.0,69,0.00,,---,0.00,VWS V14.00,2013-04-06 07:02:00,
2013-04-06 03:07:00,43.3,34.2,30.12,NNE,16,0.0,0.0,70,0.00,,---,0.00,VWS V14.00,2013-04-06 07:07:00,
2013-04-06 03:12:00,42.9,34.2,30.12,NNE,16,0.0,0.0,71,0.00,,---,0.00,VWS V14.00,2013-04-06 07:12:00,
2013-04-06 03:17:00,42.7,34.0,30.12,NNE,16,0.0,0.0,71,0.00,,---,0.00,VWS V14.00,2013-04-06 07:17:00,
2013-04-06 03:22:00,42.5,34.1,30.12,NNE,15,0.0,0.0,72,0.00,,---,0.00,VWS V14.00,2013-04-06 07:22:00,
2013-04-06 03:27:00,42.3,33.9,30.13,NNE,16,0.0,0.0,72,0.00,,---,0.00,VWS V14.00,2013-04-06 07:27:00,
2013-04-06 03:32:00,42.2,34.2,30.13,NNE,16,0.0,0.0,73,0.00,,---,0.00,VWS V14.00,2013-04-06 07:32:00,
2013-04-06 03:37:00,42.2,34.5,30.13,NNE,15,0.0,0.0,74,0.00,,---,0.00,VWS V14.00,2013-04-06 07:37:00,
2013-04-06 03:42:00,42.1,34.4,30.13,NNE,16,0.0,0.0,74,0.00,,---,0.00,VWS V14.00,2013-04-06 07:42:00,
2013-04-06 03:47:00,42.0,34.7,30.13,NNE,15,0.0,0.0,75,0.00,,---,0.00,VWS V14.00,2013-04-06 07:47:00,
2013-04-06 03:52:00,41.8,34.5,30.13,NNE,16,3.0,3.0,75,0.00,,---,0.00,VWS V14.00,2013-04-06 07:52:00,
2013-04-06 03:57:00,41.7,34.7,30.13,NNE,16,0.0,3.0,76,0.00,,---,0.00,VWS V14.00,2013-04-06 07:57:00,
2013-04-06 04:02:00,41.6,34.9,30.13,NNE,16,0.0,3.0,77,0.00,,---,0.00,VWS V14.00,2013-04-06 08:02:00,
2013-04-06 04:07:00,41.5,34.5,30.13,NNE,16,0.0,0.0,76,0.00,,---,0.00,VWS V14.00,2013-04-06 08:07:00,
2013-04-06 04:12:00,41.4,34.7,30.14,NNE,16,0.0,0.0,77,0.00,,---,0.00,VWS V14.00,2013-04-06 08:12:00,
2013-04-06 04:17:00,41.3,35.0,30.14,NNE,16,0.0,0.0,78,0.00,,---,0.00,VWS V14.00,2013-04-06 08:17:00,
2013-04-06 04:22:00,41.2,34.9,30.14,NNE,15,0.0,0.0,78,0.00,,---,0.00,VWS V14.00,2013-04-06 08:22:00,
2013-04-06 04:27:00,41.1,34.8,30.14,NNE,15,0.0,0.0,78,0.00,,---,0.00,VWS V14.00,2013-04-06 08:27:00,
2013-04-06 04:32:00,41.1,34.8,30.14,NNE,15,0.0,0.0,78,0.00,,---,0.00,VWS V14.00,2013-04-06 08:32:00,
2013-04-06 04:37:00,41.0,34.7,30.14,NNE,16,0.0,0.0,78,0.00,,---,0.00,VWS V14.00,2013-04-06 08:37:00,
2013-04-06 04:42:00,40.9,34.6,30.14,NNE,16,0.0,0.0,78,0.00,,---,0.00,VWS V14.00,2013-04-06 08:42:00,
2013-04-06 04:47:00,40.7,34.7,30.14,NNE,15,0.0,0.0,79,0.00,,---,0.00,VWS V14.00,2013-04-06 08:47:00,
2013-04-06 04:52:00,40.6,34.6,30.15,NNE,16,0.0,0.0,79,0.00,,---,0.00,VWS V14.00,2013-04-06 08:52:00,
2013-04-06 04:57:00,40.4,34.4,30.15,NNE,16,0.0,2.0,79,0.00,,---,0.00,VWS V14.00,2013-04-06 08:57:00,
2013-04-06 05:02:00,40.2,34.5,30.14,NNE,15,0.0,2.0,80,0.00,,---,0.00,VWS V14.00,2013-04-06 09:02:00,
2013-04-06 05:07:00,40.2,34.5,30.15,NNE,16,0.0,0.0,80,0.00,,---,0.00,VWS V14.00,2013-04-06 09:07:00,
2013-04-06 05:12:00,40.2,34.5,30.14,NNE,15,0.0,0.0,80,0.00,,---,0.00,VWS V14.00,2013-04-06 09:12:00,
2013-04-06 05:17:00,40.0,34.7,30.15,South,173,2.0,2.0,81,0.00,,---,0.00,VWS V14.00,2013-04-06 09:17:00,
2013-04-06 05:22:00,39.7,34.4,30.15,South,173,0.0,2.0,81,0.00,,---,0.00,VWS V14.00,2013-04-06 09:22:00,
2013-04-06 05:27:00,39.6,34.3,30.15,South,173,0.0,2.0,81,0.00,,---,0.00,VWS V14.00,2013-04-06 09:27:00,
2013-04-06 05:32:00,39.5,34.5,30.15,South,173,0.0,2.0,82,0.00,,---,0.00,VWS V14.00,2013-04-06 09:32:00,
2013-04-06 05:37:00,39.4,34.4,30.15,South,173,0.0,0.0,82,0.00,,---,0.00,VWS V14.00,2013-04-06 09:37:00,
2013-04-06 05:42:00,39.4,34.7,30.15,South,173,1.0,1.0,83,0.00,,---,0.00,VWS V14.00,2013-04-06 09:42:00,
2013-04-06 05:47:00,39.4,34.7,30.16,South,173,0.0,1.0,83,0.00,,---,0.00,VWS V14.00,2013-04-06 09:47:00,
2013-04-06 05:52:00,39.4,34.1,30.16,South,173,0.0,1.0,81,0.00,,---,0.00,VWS V14.00,2013-04-06 09:52:00,
2013-04-06 05:57:00,39.5,33.8,30.16,South,173,0.0,1.0,80,0.00,,---,0.00,VWS V14.00,2013-04-06 09:57:00,
2013-04-06 06:02:00,39.6,34.0,30.16,South,173,0.0,1.0,80,0.00,,---,0.00,VWS V14.00,2013-04-06 10:02:00,
2013-04-06 06:07:00,39.7,34.0,30.16,South,173,0.0,0.0,80,0.00,,---,0.00,VWS V14.00,2013-04-06 10:07:00,
2013-04-06 06:12:00,39.6,34.0,30.17,South,173,0.0,0.0,80,0.00,,---,0.00,VWS V14.00,2013-04-06 10:12:00,
2013-04-06 06:17:00,39.6,34.0,30.17,South,173,0.0,0.0,80,0.00,,---,0.00,VWS V14.00,2013-04-06 10:17:00,
2013-04-06 06:22:00,39.6,34.0,30.17,South,173,0.0,0.0,80,0.00,,---,0.00,VWS V14.00,2013-04-06 10:22:00,
2013-04-06 06:27:00,39.8,33.8,30.17,South,173,1.0,1.0,79,0.00,,---,0.00,VWS V14.00,2013-04-06 10:27:00,
2013-04-06 06:32:00,40.2,33.9,30.17,South,173,0.0,2.0,78,0.00,,---,0.00,VWS V14.00,2013-04-06 10:32:00,
2013-04-06 06:37:00,40.6,34.0,30.17,South,173,0.0,0.0,77,0.00,,---,0.00,VWS V14.00,2013-04-06 10:37:00,
2013-04-06 06:42:00,40.6,34.3,30.18,South,173,0.0,0.0,78,0.00,,---,0.00,VWS V14.00,2013-04-06 10:42:00,
2013-04-06 06:47:00,40.7,34.1,30.18,South,173,0.0,0.0,77,0.00,,---,0.00,VWS V14.00,2013-04-06 10:47:00,
2013-04-06 06:52:00,40.8,34.2,30.18,South,173,0.0,1.0,77,0.00,,---,0.00,VWS V14.00,2013-04-06 10:52:00,
2013-04-06 06:57:00,40.7,34.1,30.18,South,173,0.0,1.0,77,0.00,,---,0.00,VWS V14.00,2013-04-06 10:57:00,
2013-04-06 07:02:00,40.5,34.2,30.19,South,173,0.0,1.0,78,0.00,,---,0.00,VWS V14.00,2013-04-06 11:02:00,
2013-04-06 07:07:00,40.2,34.2,30.20,South,173,0.0,0.0,79,0.00,,---,0.00,VWS V14.00,2013-04-06 11:07:00,
2013-04-06 07:12:00,40.0,34.0,30.20,South,173,0.0,0.0,79,0.00,,---,0.00,VWS V14.00,2013-04-06 11:12:00,
2013-04-06 07:17:00,39.7,33.7,30.20,South,173,0.0,0.0,79,0.00,,---,0.00,VWS V14.00,2013-04-06 11:17:00,
2013-04-06 07:22:00,39.5,33.8,30.21,South,173,0.0,0.0,80,0.00,,---,0.00,VWS V14.00,2013-04-06 11:22:00,
2013-04-06 07:27:00,39.2,33.6,30.21,South,173,0.0,0.0,80,0.00,,---,0.00,VWS V14.00,2013-04-06 11:27:00,
2013-04-06 07:32:00,38.9,33.3,30.21,South,173,0.0,0.0,80,0.00,,---,0.00,VWS V14.00,2013-04-06 11:32:00,
2013-04-06 07:33:00,38.8,33.5,30.21,South,173,0.0,0.0,81,0.00,,---,0.00,VWS V14.00,2013-04-06 11:33:00,
2013-04-06 07:38:00,38.6,33.3,30.22,South,173,0.0,0.0,81,0.00,,---,0.00,VWS V14.00,2013-04-06 11:38:00,
2013-04-06 07:43:00,38.3,33.3,30.23,South,173,0.0,0.0,82,0.00,,---,0.00,VWS V14.00,2013-04-06 11:43:00,
2013-04-06 07:48:00,38.2,33.2,30.23,South,173,0.0,0.0,82,0.00,,---,0.00,VWS V14.00,2013-04-06 11:48:00,
2013-04-06 07:53:00,38.0,33.3,30.23,South,173,0.0,0.0,83,0.00,,---,0.00,VWS V14.00,2013-04-06 11:53:00,
2013-04-06 07:58:00,37.9,33.5,30.23,South,173,0.0,0.0,84,0.00,,---,0.00,VWS V14.00,2013-04-06 11:58:00,
2013-04-06 08:03:00,37.8,33.4,30.23,South,173,0.0,0.0,84,0.00,,---,0.00,VWS V14.00,2013-04-06 12:03:00,
2013-04-06 08:08:00,37.8,33.7,30.24,South,173,0.0,1.0,85,0.00,,---,0.00,VWS V14.00,2013-04-06 12:08:00,
2013-04-06 08:13:00,38.0,33.9,30.24,South,173,0.0,1.0,85,0.00,,---,0.00,VWS V14.00,2013-04-06 12:13:00,
2013-04-06 08:18:00,38.2,34.4,30.25,South,173,0.0,1.0,86,0.00,,---,0.00,VWS V14.00,2013-04-06 12:18:00,
2013-04-06 08:23:00,38.7,34.9,30.24,SSE,164,0.0,1.0,86,0.00,,---,0.00,VWS V14.00,2013-04-06 12:23:00,
2013-04-06 08:28:00,39.2,35.1,30.24,SSE,164,0.0,1.0,85,0.00,,---,0.00,VWS V14.00,2013-04-06 12:28:00,
2013-04-06 08:33:00,39.5,35.4,30.25,SSE,164,0.0,1.0,85,0.00,,---,0.00,VWS V14.00,2013-04-06 12:33:00,
2013-04-06 08:38:00,39.9,35.8,30.25,SSE,164,0.0,0.0,85,0.00,,---,0.00,VWS V14.00,2013-04-06 12:38:00,
2013-04-06 08:43:00,40.5,36.0,30.24,SSE,163,0.0,2.0,84,0.00,,---,0.00,VWS V14.00,2013-04-06 12:43:00,
2013-04-06 08:48:00,41.3,36.2,30.24,SE,130,1.0,3.0,82,0.00,,---,0.00,VWS V14.00,2013-04-06 12:48:00,
2013-04-06 08:53:00,42.0,36.3,30.24,SE,130,0.0,3.0,80,0.00,,---,0.00,VWS V14.00,2013-04-06 12:53:00,
2013-04-06 08:58:00,42.5,36.5,30.24,SE,130,0.0,3.0,79,0.00,,---,0.00,VWS V14.00,2013-04-06 12:58:00,
2013-04-06 09:03:00,42.9,36.2,30.23,SE,130,0.0,3.0,77,0.00,,---,0.00,VWS V14.00,2013-04-06 13:03:00,
2013-04-06 09:08:00,43.2,36.2,30.24,SE,130,0.0,0.0,76,0.00,,---,0.00,VWS V14.00,2013-04-06 13:08:00,
2013-04-06 09:13:00,43.6,36.5,30.24,SE,130,0.0,1.0,76,0.00,,---,0.00,VWS V14.00,2013-04-06 13:13:00,
2013-04-06 09:18:00,44.0,37.3,30.24,SE,130,1.0,1.0,77,0.00,,---,0.00,VWS V14.00,2013-04-06 13:18:00,
2013-04-06 09:23:00,44.5,36.7,30.23,SE,130,0.0,2.0,74,0.00,,---,0.00,VWS V14.00,2013-04-06 13:23:00,
2013-04-06 09:28:00,45.0,37.2,30.23,SE,125,0.0,3.0,74,0.00,,---,0.00,VWS V14.00,2013-04-06 13:28:00,
2013-04-06 09:33:00,45.5,36.3,30.23,SE,139,2.0,5.0,70,0.00,,---,0.00,VWS V14.00,2013-04-06 13:33:00,
2013-04-06 09:38:00,45.8,36.6,30.23,SE,134,1.0,3.0,70,0.00,,---,0.00,VWS V14.00,2013-04-06 13:38:00,
2013-04-06 09:44:00,46.1,36.9,30.23,SE,138,0.0,3.0,70,0.00,,---,0.00,VWS V14.00,2013-04-06 13:44:00,
2013-04-06 09:49:00,46.6,36.6,30.23,ESE,119,2.0,4.0,68,0.00,,---,0.00,VWS V14.00,2013-04-06 13:49:00,
2013-04-06 09:54:00,47.0,37.0,30.22,SSE,152,1.0,4.0,68,0.00,,---,0.00,VWS V14.00,2013-04-06 13:54:00,
2013-04-06 09:59:00,47.7,38.0,30.23,SSE,152,0.0,4.0,69,0.00,,---,0.00,VWS V14.00,2013-04-06 13:59:00,
2013-04-06 10:04:00,48.1,38.8,30.23,SSE,152,0.0,4.0,70,0.00,,---,0.00,VWS V14.00,2013-04-06 14:04:00,
2013-04-06 10:09:00,48.5,37.7,30.23,SE,137,0.0,4.0,66,0.00,,---,0.00,VWS V14.00,2013-04-06 14:09:00,
2013-04-06 10:14:00,49.3,38.8,30.23,East,82,3.0,4.0,67,0.00,,---,0.00,VWS V14.00,2013-04-06 14:14:00,
2013-04-06 10:19:00,49.7,37.6,30.22,East,84,2.0,5.0,63,0.00,,---,0.00,VWS V14.00,2013-04-06 14:19:00,
2013-04-06 10:24:00,49.8,37.3,30.22,SSE,168,0.0,5.0,62,0.00,,---,0.00,VWS V14.00,2013-04-06 14:24:00,
2013-04-06 10:29:00,50.1,36.8,30.22,ENE,67,0.0,5.0,60,0.00,,---,0.00,VWS V14.00,2013-04-06 14:29:00,
2013-04-06 10:34:00,50.9,38.4,30.22,East,85,3.0,5.0,62,0.00,,---,0.00,VWS V14.00,2013-04-06 14:34:00,
2013-04-06 10:39:00,51.3,37.5,30.22,ESE,114,2.0,4.0,59,0.00,,---,0.00,VWS V14.00,2013-04-06 14:39:00,
2013-04-06 10:44:00,51.5,37.7,30.22,SE,126,1.0,5.0,59,0.00,,---,0.00,VWS V14.00,2013-04-06 14:44:00,
2013-04-06 10:49:00,52.0,38.1,30.22,ESE,113,3.0,5.0,59,0.00,,---,0.00,VWS V14.00,2013-04-06 14:49:00,
2013-04-06 10:54:00,52.3,37.5,30.22,SE,126,3.0,5.0,57,0.00,,---,0.00,VWS V14.00,2013-04-06 14:54:00,
2013-04-06 10:59:00,52.9,38.1,30.22,SE,134,0.0,5.0,57,0.00,,---,0.00,VWS V14.00,2013-04-06 14:59:00,
2013-04-06 11:04:00,53.6,39.2,30.21,SE,124,2.0,5.0,58,0.00,,---,0.00,VWS V14.00,2013-04-06 15:04:00,
2013-04-06 11:09:00,54.0,39.1,30.21,ENE,78,0.0,3.0,57,0.00,,---,0.00,VWS V14.00,2013-04-06 15:09:00,
2013-04-06 11:14:00,54.3,38.5,30.21,ENE,63,1.0,5.0,55,0.00,,---,0.00,VWS V14.00,2013-04-06 15:14:00,
2013-04-06 11:19:00,54.4,39.0,30.21,ENE,69,5.0,6.0,56,0.00,,---,0.00,VWS V14.00,2013-04-06 15:19:00,
2013-04-06 11:24:00,54.6,38.3,30.21,SW,221,1.0,6.0,54,0.00,,---,0.00,VWS V14.00,2013-04-06 15:24:00,
2013-04-06 11:29:00,55.0,39.2,30.20,SSE,154,0.0,6.0,55,0.00,,---,0.00,VWS V14.00,2013-04-06 15:29:00,
2013-04-06 11:34:00,55.4,39.5,30.20,ESE,119,7.0,7.0,55,0.00,,---,0.00,VWS V14.00,2013-04-06 15:34:00,
2013-04-06 11:39:00,55.7,38.8,30.20,ENE,63,0.0,4.0,53,0.00,,---,0.00,VWS V14.00,2013-04-06 15:39:00,
2013-04-06 11:44:00,56.0,38.6,30.20,NNE,21,2.0,5.0,52,0.00,,---,0.00,VWS V14.00,2013-04-06 15:44:00,
2013-04-06 11:49:00,56.5,38.1,30.20,ENE,67,4.0,5.0,50,0.00,,---,0.00,VWS V14.00,2013-04-06 15:49:00,
2013-04-06 11:54:00,57.1,38.7,30.20,SE,133,0.0,7.0,50,0.00,,---,0.00,VWS V14.00,2013-04-06 15:54:00,
2013-04-06 11:59:00,57.1,38.7,30.20,East,99,3.0,12.0,50,0.00,,---,0.00,VWS V14.00,2013-04-06 15:59:00,
2013-04-06 12:05:00,57.7,39.2,30.20,East,95,5.0,12.0,50,0.00,,---,0.00,VWS V14.00,2013-04-06 16:05:00,
2013-04-06 12:10:00,58.4,39.3,30.19,North,350,3.0,4.0,49,0.00,,---,0.00,VWS V14.00,2013-04-06 16:10:00,
2013-04-06 12:15:00,59.0,39.4,30.19,East,84,0.0,6.0,48,0.00,,---,0.00,VWS V14.00,2013-04-06 16:15:00,
2013-04-06 12:20:00,59.6,39.9,30.18,East,94,5.0,6.0,48,0.00,,---,0.00,VWS V14.00,2013-04-06 16:20:00,
2013-04-06 12:25:00,60.3,40.0,30.19,ENE,78,1.0,6.0,47,0.00,,---,0.00,VWS V14.00,2013-04-06 16:25:00,
2013-04-06 12:30:00,60.6,39.2,30.18,East,80,4.0,6.0,45,0.00,,---,0.00,VWS V14.00,2013-04-06 16:30:00,
2013-04-06 12:35:00,60.5,38.5,30.18,NE,53,3.0,6.0,44,0.00,,---,0.00,VWS V14.00,2013-04-06 16:35:00,
2013-04-06 12:40:00,61.4,40.5,30.17,South,186,4.0,4.0,46,0.00,,---,0.00,VWS V14.00,2013-04-06 16:40:00,
2013-04-06 12:45:00,62.1,38.8,30.17,East,96,4.0,7.0,42,0.00,,---,0.00,VWS V14.00,2013-04-06 16:45:00,
2013-04-06 12:50:00,62.2,38.8,30.17,NE,46,0.0,7.0,42,0.00,,---,0.00,VWS V14.00,2013-04-06 16:50:00,
2013-04-06 12:55:00,62.9,41.8,30.17,South,169,4.0,7.0,46,0.00,,---,0.00,VWS V14.00,2013-04-06 16:55:00,
2013-04-06 13:00:00,63.1,39.7,30.16,SSW,200,0.0,10.0,42,0.00,,---,0.00,VWS V14.00,2013-04-06 17:00:00,
2013-04-06 13:05:00,63.7,40.8,30.16,East,96,3.0,10.0,43,0.00,,---,0.00,VWS V14.00,2013-04-06 17:05:00,
2013-04-06 13:10:00,63.9,40.4,30.16,SSW,194,0.0,6.0,42,0.00,,---,0.00,VWS V14.00,2013-04-06 17:10:00,
2013-04-06 13:15:00,64.5,41.5,30.16,South,173,3.0,6.0,43,0.00,,---,0.00,VWS V14.00,2013-04-06 17:15:00,
2013-04-06 13:20:00,64.3,40.1,30.16,SSW,194,5.0,6.0,41,0.00,,---,0.00,VWS V14.00,2013-04-06 17:20:00,
2013-04-06 13:25:00,64.4,39.6,30.16,South,191,0.0,7.0,40,0.00,,---,0.00,VWS V14.00,2013-04-06 17:25:00,
2013-04-06 13:30:00,64.7,39.2,30.15,South,175,6.0,7.0,39,0.00,,---,0.00,VWS V14.00,2013-04-06 17:30:00,
2013-04-06 13:35:00,65.0,41.4,30.14,South,177,2.0,7.0,42,0.00,,---,0.00,VWS V14.00,2013-04-06 17:35:00,
2013-04-06 13:40:00,65.8,40.2,30.14,South,169,6.0,7.0,39,0.00,,---,0.00,VWS V14.00,2013-04-06 17:40:00,
2013-04-06 13:45:00,65.6,40.0,30.14,SSE,161,7.0,10.0,39,0.00,,---,0.00,VWS V14.00,2013-04-06 17:45:00,
2013-04-06 13:50:00,64.9,39.4,30.14,South,170,4.0,10.0,39,0.00,,---,0.00,VWS V14.00,2013-04-06 17:50:00,
2013-04-06 13:55:00,65.3,39.7,30.14,South,178,0.0,10.0,39,0.00,,---,0.00,VWS V14.00,2013-04-06 17:55:00,
2013-04-06 14:00:00,65.8,39.5,30.13,SE,128,2.0,10.0,38,0.00,,---,0.00,VWS V14.00,2013-04-06 18:00:00,
2013-04-06 14:05:00,66.6,41.5,30.12,ENE,72,1.0,10.0,40,0.00,,---,0.00,VWS V14.00,2013-04-06 18:05:00,
2013-04-06 14:10:00,66.9,41.2,30.13,NE,44,0.0,9.0,39,0.00,,---,0.00,VWS V14.00,2013-04-06 18:10:00,
2013-04-06 14:15:00,67.0,39.2,30.13,WSW,253,0.0,9.0,36,0.00,,---,0.00,VWS V14.00,2013-04-06 18:15:00,
2013-04-06 14:20:00,67.1,41.3,30.12,East,87,0.0,9.0,39,0.00,,---,0.00,VWS V14.00,2013-04-06 18:20:00,
2013-04-06 14:25:00,67.5,40.3,30.12,SSW,206,5.0,10.0,37,0.00,,---,0.00,VWS V14.00,2013-04-06 18:25:00,
2013-04-06 14:30:00,67.8,38.4,30.12,SE,144,5.0,10.0,34,0.00,,---,0.00,VWS V14.00,2013-04-06 18:30:00,
2013-04-06 14:35:00,67.6,38.3,30.12,SSE,161,1.0,10.0,34,0.00,,---,0.00,VWS V14.00,2013-04-06 18:35:00,
2013-04-06 14:40:00,67.7,39.1,30.11,South,182,0.0,5.0,35,0.00,,---,0.00,VWS V14.00,2013-04-06 18:40:00,
2013-04-06 14:45:00,68.2,40.2,30.11,SSE,159,4.0,6.0,36,0.00,,---,0.00,VWS V14.00,2013-04-06 18:45:00,
2013-04-06 14:50:00,68.2,38.0,30.11,SSE,160,0.0,6.0,33,0.00,,---,0.00,VWS V14.00,2013-04-06 18:50:00,
2013-04-06 14:55:00,68.5,39.0,30.11,SSE,157,4.0,10.0,34,0.00,,---,0.00,VWS V14.00,2013-04-06 18:55:00,
2013-04-06 15:00:00,68.6,38.4,30.10,SE,127,3.0,10.0,33,0.00,,---,0.00,VWS V14.00,2013-04-06 19:00:00,
2013-04-06 15:05:00,69.0,37.9,30.10,SW,227,5.0,10.0,32,0.00,,---,0.00,VWS V14.00,2013-04-06 19:05:00,
2013-04-06 15:10:00,68.8,38.5,30.11,SW,236,0.0,5.0,33,0.00,,---,0.00,VWS V14.00,2013-04-06 19:10:00,
2013-04-06 15:15:00,69.0,38.7,30.10,SE,126,2.0,5.0,33,0.00,,---,0.00,VWS V14.00,2013-04-06 19:15:00,
2013-04-06 15:20:00,69.2,39.7,30.10,WNW,300,0.0,5.0,34,0.00,,---,0.00,VWS V14.00,2013-04-06 19:20:00,
2013-04-06 15:25:00,69.0,37.1,30.10,SW,220,0.0,6.0,31,0.00,,---,0.00,VWS V14.00,2013-04-06 19:25:00,
2013-04-06 15:30:00,68.9,37.0,30.10,SW,220,0.0,6.0,31,0.00,,---,0.00,VWS V14.00,2013-04-06 19:30:00,
2013-04-06 15:35:00,69.1,38.0,30.10,SE,132,2.0,6.0,32,0.00,,---,0.00,VWS V14.00,2013-04-06 19:35:00,
2013-04-06 15:40:00,69.5,38.4,30.09,SSE,165,0.0,4.0,32,0.00,,---,0.00,VWS V14.00,2013-04-06 19:40:00,
2013-04-06 15:45:00,70.0,37.2,30.09,South,169,3.0,4.0,30,0.00,,---,0.00,VWS V14.00,2013-04-06 19:45:00,
2013-04-06 15:50:00,69.8,37.0,30.09,SSE,164,4.0,6.0,30,0.00,,---,0.00,VWS V14.00,2013-04-06 19:50:00,
2013-04-06 15:55:00,69.0,36.3,30.10,South,173,6.0,11.0,30,0.00,,---,0.00,VWS V14.00,2013-04-06 19:55:00,
2013-04-06 16:00:00,69.0,35.5,30.09,SW,229,3.0,11.0,29,0.00,,---,0.00,VWS V14.00,2013-04-06 20:00:00,
2013-04-06 16:05:00,68.5,37.5,30.08,SSE,165,1.0,11.0,32,0.00,,---,0.00,VWS V14.00,2013-04-06 20:05:00,
2013-04-06 16:10:00,68.7,36.0,30.09,East,84,0.0,4.0,30,0.00,,---,0.00,VWS V14.00,2013-04-06 20:10:00,
2013-04-06 16:15:00,69.0,36.3,30.09,ESE,113,0.0,5.0,30,0.00,,---,0.00,VWS V14.00,2013-04-06 20:15:00,
2013-04-06 16:20:00,69.0,36.3,30.08,SSE,161,5.0,7.0,30,0.00,,---,0.00,VWS V14.00,2013-04-06 20:20:00,
2013-04-06 16:25:00,68.7,36.0,30.08,SSE,166,0.0,7.0,30,0.00,,---,0.00,VWS V14.00,2013-04-06 20:25:00,
2013-04-06 16:30:00,68.6,36.8,30.08,South,183,2.0,7.0,31,0.00,,---,0.00,VWS V14.00,2013-04-06 20:30:00,
2013-04-06 16:35:00,67.8,35.3,30.08,South,184,3.0,9.0,30,0.00,,---,0.00,VWS V14.00,2013-04-06 20:35:00,
2013-04-06 16:40:00,66.9,35.3,30.09,WSW,252,4.0,11.0,31,0.00,,---,0.00,VWS V14.00,2013-04-06 20:40:00,
2013-04-06 16:45:00,66.6,35.0,30.09,South,176,0.0,12.0,31,0.00,,---,0.00,VWS V14.00,2013-04-06 20:45:00,
2013-04-06 16:50:00,66.6,35.0,30.09,SSW,195,0.0,12.0,31,0.00,,---,0.00,VWS V14.00,2013-04-06 20:50:00,
2013-04-06 16:55:00,66.5,35.0,30.09,South,186,5.0,12.0,31,0.00,,---,0.00,VWS V14.00,2013-04-06 20:55:00,
2013-04-06 17:00:00,66.3,34.8,30.09,SSW,198,9.0,12.0,31,0.00,,---,0.00,VWS V14.00,2013-04-06 21:00:00,
2013-04-06 17:05:00,66.3,34.8,30.09,South,186,5.0,12.0,31,0.00,,---,0.00,VWS V14.00,2013-04-06 21:05:00,
2013-04-06 17:10:00,66.4,35.7,30.09,SSE,149,6.0,12.0,32,0.00,,---,0.00,VWS V14.00,2013-04-06 21:10:00,
2013-04-06 17:15:00,66.1,34.6,30.09,SW,223,5.0,12.0,31,0.00,,---,0.00,VWS V14.00,2013-04-06 21:15:00,
2013-04-06 17:20:00,65.9,35.2,30.09,SW,231,3.0,12.0,32,0.00,,---,0.00,VWS V14.00,2013-04-06 21:20:00,
2013-04-06 17:25:00,65.7,35.1,30.10,SSW,200,4.0,15.0,32,0.00,,---,0.00,VWS V14.00,2013-04-06 21:25:00,
2013-04-06 17:30:00,65.6,34.2,30.10,SW,215,3.0,15.0,31,0.00,,---,0.00,VWS V14.00,2013-04-06 21:30:00,
2013-04-06 17:35:00,65.6,35.0,30.10,South,182,1.0,15.0,32,0.00,,---,0.00,VWS V14.00,2013-04-06 21:35:00,
2013-04-06 17:40:00,65.7,35.1,30.10,South,184,2.0,12.0,32,0.00,,---,0.00,VWS V14.00,2013-04-06 21:40:00,
2013-04-06 17:45:00,65.9,35.2,30.10,SSE,150,6.0,12.0,32,0.00,,---,0.00,VWS V14.00,2013-04-06 21:45:00,
2013-04-06 17:50:00,66.0,34.5,30.10,SSW,192,2.0,12.0,31,0.00,,---,0.00,VWS V14.00,2013-04-06 21:50:00,
2013-04-06 17:55:00,66.0,36.1,30.10,SSE,153,0.0,12.0,33,0.00,,---,0.00,VWS V14.00,2013-04-06 21:55:00,
2013-04-06 18:00:00,65.9,34.4,30.11,SSW,194,3.0,13.0,31,0.00,,---,0.00,VWS V14.00,2013-04-06 22:00:00,
2013-04-06 18:05:00,65.6,34.2,30.11,SW,217,1.0,13.0,31,0.00,,---,0.00,VWS V14.00,2013-04-06 22:05:00,
2013-04-06 18:10:00,65.5,35.7,30.10,SW,216,4.0,15.0,33,0.00,,---,0.00,VWS V14.00,2013-04-06 22:10:00,
2013-04-06 18:15:00,65.3,35.5,30.11,SW,232,2.0,15.0,33,0.00,,---,0.00,VWS V14.00,2013-04-06 22:15:00,
2013-04-06 18:20:00,65.0,35.2,30.11,South,186,3.0,15.0,33,0.00,,---,0.00,VWS V14.00,2013-04-06 22:20:00,
2013-04-06 18:25:00,64.7,35.0,30.11,South,187,0.0,15.0,33,0.00,,---,0.00,VWS V14.00,2013-04-06 22:25:00,
2013-04-06 18:30:00,64.5,34.8,30.11,South,190,2.0,15.0,33,0.00,,---,0.00,VWS V14.00,2013-04-06 22:30:00,
2013-04-06 18:35:00,64.3,34.6,30.11,SE,137,6.0,15.0,33,0.00,,---,0.00,VWS V14.00,2013-04-06 22:35:00,
2013-04-06 18:40:00,64.1,35.2,30.11,SSW,209,2.0,7.0,34,0.00,,---,0.00,VWS V14.00,2013-04-06 22:40:00,
2013-04-06 18:45:00,64.0,35.1,30.11,South,173,3.0,7.0,34,0.00,,---,0.00,VWS V14.00,2013-04-06 22:45:00,
2013-04-06 18:50:00,63.8,34.9,30.11,SSW,202,6.0,9.0,34,0.00,,---,0.00,VWS V14.00,2013-04-06 22:50:00,
2013-04-06 18:55:00,63.6,35.5,30.11,South,178,2.0,9.0,35,0.00,,---,0.00,VWS V14.00,2013-04-06 22:55:00,
2013-04-06 19:00:00,63.4,35.3,30.12,South,178,4.0,9.0,35,0.00,,---,0.00,VWS V14.00,2013-04-06 23:00:00,
2013-04-06 19:05:00,63.2,35.1,30.12,South,179,3.0,10.0,35,0.00,,---,0.00,VWS V14.00,2013-04-06 23:05:00,
2013-04-06 19:10:00,63.0,34.9,30.13,SSW,196,0.0,9.0,35,0.00,,---,0.00,VWS V14.00,2013-04-06 23:10:00,
2013-04-06 19:15:00,62.7,34.7,30.13,South,190,0.0,9.0,35,0.00,,---,0.00,VWS V14.00,2013-04-06 23:15:00,
2013-04-06 19:20:00,62.6,36.0,30.13,South,176,0.0,9.0,37,0.00,,---,0.00,VWS V14.00,2013-04-06 23:20:00,
2013-04-06 19:25:00,62.2,34.9,30.13,SSW,209,0.0,9.0,36,0.00,,---,0.00,VWS V14.00,2013-04-06 23:25:00,
2013-04-06 19:30:00,62.0,34.8,30.13,SW,229,5.0,12.0,36,0.00,,---,0.00,VWS V14.00,2013-04-06 23:30:00,
2013-04-06 19:35:00,61.7,35.2,30.14,SW,225,3.0,12.0,37,0.00,,---,0.00,VWS V14.00,2013-04-06 23:35:00,
2013-04-06 19:40:00,61.5,35.0,30.13,WSW,242,1.0,10.0,37,0.00,,---,0.00,VWS V14.00,2013-04-06 23:40:00,
2013-04-06 19:45:00,61.3,34.8,30.14,WSW,243,2.0,11.0,37,0.00,,---,0.00,VWS V14.00,2013-04-06 23:45:00,
2013-04-06 19:50:00,61.1,35.3,30.14,SSW,211,0.0,11.0,38,0.00,,---,0.00,VWS V14.00,2013-04-06 23:50:00,
2013-04-06 19:55:00,60.8,35.1,30.14,WSW,249,6.0,11.0,38,0.00,,---,0.00,VWS V14.00,2013-04-06 23:55:00,
2013-04-06 20:00:00,60.6,35.5,30.14,SSW,194,5.0,11.0,39,0.00,,---,0.00,VWS V14.00,2013-04-07 00:00:00,
2013-04-06 20:05:00,60.4,35.3,30.14,South,183,2.0,11.0,39,0.00,,---,0.00,VWS V14.00,2013-04-07 00:05:00,
2013-04-06 20:10:00,60.1,35.7,30.13,WSW,242,2.0,6.0,40,0.00,,---,0.00,VWS V14.00,2013-04-07 00:10:00,
2013-04-06 20:15:00,60.0,35.6,30.13,SE,133,1.0,7.0,40,0.00,,---,0.00,VWS V14.00,2013-04-07 00:15:00,
2013-04-06 20:20:00,59.8,36.1,30.13,West,269,0.0,7.0,41,0.00,,---,0.00,VWS V14.00,2013-04-07 00:20:00,
2013-04-06 20:25:00,59.7,36.6,30.13,West,272,0.0,7.0,42,0.00,,---,0.00,VWS V14.00,2013-04-07 00:25:00,
2013-04-06 20:30:00,59.4,35.7,30.13,West,263,1.0,7.0,41,0.00,,---,0.00,VWS V14.00,2013-04-07 00:30:00,
2013-04-06 20:35:00,59.1,36.0,30.13,West,263,0.0,7.0,42,0.00,,---,0.00,VWS V14.00,2013-04-07 00:35:00,
2013-04-06 20:40:00,59.0,36.0,30.13,WNW,295,0.0,3.0,42,0.00,,---,0.00,VWS V14.00,2013-04-07 00:40:00,
2013-04-06 20:45:00,59.0,36.0,30.13,SSW,196,1.0,4.0,42,0.00,,---,0.00,VWS V14.00,2013-04-07 00:45:00,
2013-04-06 20:50:00,59.0,36.0,30.14,SW,221,0.0,6.0,42,0.00,,---,0.00,VWS V14.00,2013-04-07 00:50:00,
2013-04-06 20:55:00,59.0,36.0,30.14,SW,229,4.0,10.0,42,0.00,,---,0.00,VWS V14.00,2013-04-07 00:55:00,
2013-04-06 21:00:00,58.9,35.9,30.14,SSE,156,2.0,10.0,42,0.00,,---,0.00,VWS V14.00,2013-04-07 01:00:00,
2013-04-06 21:05:00,58.7,35.7,30.14,West,259,0.0,10.0,42,0.00,,---,0.00,VWS V14.00,2013-04-07 01:05:00,
2013-04-06 21:10:00,58.7,35.7,30.13,West,259,0.0,3.0,42,0.00,,---,0.00,VWS V14.00,2013-04-07 01:10:00,
2013-04-06 21:15:00,58.6,36.2,30.13,East,92,0.0,3.0,43,0.00,,---,0.00,VWS V14.00,2013-04-07 01:15:00,
2013-04-06 21:20:00,58.5,36.1,30.13,South,190,4.0,5.0,43,0.00,,---,0.00,VWS V14.00,2013-04-07 01:20:00,
2013-04-06 21:25:00,58.3,35.9,30.13,South,180,0.0,5.0,43,0.00,,---,0.00,VWS V14.00,2013-04-07 01:25:00,
2013-04-06 21:30:00,58.3,35.9,30.14,South,180,0.0,5.0,43,0.00,,---,0.00,VWS V14.00,2013-04-07 01:30:00,
2013-04-06 21:35:00,58.2,35.8,30.14,West,268,1.0,5.0,43,0.00,,---,0.00,VWS V14.00,2013-04-07 01:35:00,
2013-04-06 21:41:00,58.0,35.7,30.14,South,173,0.0,7.0,43,0.00,,---,0.00,VWS V14.00,2013-04-07 01:41:00,
2013-04-06 21:46:00,57.9,36.7,30.15,West,259,0.0,7.0,45,0.00,,---,0.00,VWS V14.00,2013-04-07 01:46:00,
2013-04-06 21:51:00,57.7,36.5,30.14,SSW,211,2.0,7.0,45,0.00,,---,0.00,VWS V14.00,2013-04-07 01:51:00,
2013-04-06 21:56:00,57.5,36.3,30.15,SSW,212,0.0,7.0,45,0.00,,---,0.00,VWS V14.00,2013-04-07 01:56:00,
2013-04-06 22:01:00,57.4,36.2,30.16,ENE,70,0.0,7.0,45,0.00,,---,0.00,VWS V14.00,2013-04-07 02:01:00,
2013-04-06 22:06:00,57.2,36.1,30.16,SE,144,0.0,7.0,45,0.00,,---,0.00,VWS V14.00,2013-04-07 02:06:00,
2013-04-06 22:11:00,57.1,36.0,30.14,West,259,0.0,4.0,45,0.00,,---,0.00,VWS V14.00,2013-04-07 02:11:00,
2013-04-06 22:16:00,56.9,36.3,30.14,West,259,0.0,4.0,46,0.00,,---,0.00,VWS V14.00,2013-04-07 02:16:00,
2013-04-06 22:21:00,56.8,36.3,30.14,NNW,333,0.0,4.0,46,0.00,,---,0.00,VWS V14.00,2013-04-07 02:21:00,
2013-04-06 22:26:00,56.8,36.3,30.14,WNW,294,0.0,4.0,46,0.00,,---,0.00,VWS V14.00,2013-04-07 02:26:00,
2013-04-06 22:31:00,56.8,36.3,30.14,SSW,199,0.0,7.0,46,0.00,,---,0.00,VWS V14.00,2013-04-07 02:31:00,
2013-04-06 22:36:00,56.9,36.9,30.14,NE,41,4.0,7.0,47,0.00,,---,0.00,VWS V14.00,2013-04-07 02:36:00,
2013-04-06 22:41:00,56.8,36.3,30.14,SSE,168,0.0,6.0,46,0.00,,---,0.00,VWS V14.00,2013-04-07 02:41:00,
2013-04-06 22:46:00,56.8,36.8,30.14,SSW,192,0.0,6.0,47,0.00,,---,0.00,VWS V14.00,2013-04-07 02:46:00,
2013-04-06 22:51:00,56.8,36.3,30.14,NNE,19,6.0,9.0,46,0.00,,---,0.00,VWS V14.00,2013-04-07 02:51:00,
2013-04-06 22:56:00,56.8,36.3,30.14,SSE,162,0.0,9.0,46,0.00,,---,0.00,VWS V14.00,2013-04-07 02:56:00,
2013-04-06 23:01:00,56.7,36.2,30.14,SSE,164,0.0,9.0,46,0.00,,---,0.00,VWS V14.00,2013-04-07 03:01:00,
2013-04-06 23:06:00,56.7,36.2,30.14,SSE,164,0.0,9.0,46,0.00,,---,0.00,VWS V14.00,2013-04-07 03:06:00,
2013-04-06 23:11:00,56.6,36.1,30.13,SSE,166,1.0,1.0,46,0.00,,---,0.00,VWS V14.00,2013-04-07 03:11:00,
2013-04-06 23:16:00,56.5,36.0,30.14,SW,229,0.0,4.0,46,0.00,,---,0.00,VWS V14.00,2013-04-07 03:16:00,
2013-04-06 23:21:00,56.4,35.9,30.14,SW,229,0.0,4.0,46,0.00,,---,0.00,VWS V14.00,2013-04-07 03:21:00,
2013-04-06 23:27:00,56.3,35.8,30.14,SW,232,1.0,4.0,46,0.00,,---,0.00,VWS V14.00,2013-04-07 03:27:00,
2013-04-06 23:32:00,56.2,35.7,30.14,WNW,287,1.0,4.0,46,0.00,,---,0.00,VWS V14.00,2013-04-07 03:32:00,
2013-04-06 23:37:00,56.2,35.7,30.14,SE,136,1.0,4.0,46,0.00,,---,0.00,VWS V14.00,2013-04-07 03:37:00,
2013-04-06 23:42:00,56.2,36.3,30.14,SSE,154,0.0,5.0,47,0.00,,---,0.00,VWS V14.00,2013-04-07 03:42:00,
2013-04-06 23:47:00,56.2,35.7,30.14,SSE,154,0.0,5.0,46,0.00,,---,0.00,VWS V14.00,2013-04-07 03:47:00,
2013-04-06 23:52:00,56.2,35.7,30.14,ESE,123,0.0,6.0,46,0.00,,---,0.00,VWS V14.00,2013-04-07 03:52:00,
2013-04-06 23:57:00,56.1,36.2,30.14,ESE,121,0.0,6.0,47,0.00,,---,0.00,VWS V14.00,2013-04-07 03:57:00,